Location: Stigler
(35.2540°N, 95.1230°W)
Time: 23:15:51
(UTC-05:00)

Daily predictions for brighter satellites

Satellite Brightness Start Highest point End
(mag) Time Altitude Azimuth Time Altitude Azimuth Time Altitude Azimuth
ISS -3.7 20:51:54 10° SW 20:55:12 80° NW 20:58:30 10° NE
Cosmos 1346 3.9 20:53:38 10° SSE 20:56:00 26° E 20:58:24 10° NE
Aureole 3 Rocket 4.2 20:50:01 10° SSE 20:56:10 40° E 21:00:42 10° NNE
OAO 2 Rocket 3.3 20:53:49 10° W 20:58:45 87° S 21:03:44 10° E
CZ-2D R/B 3.3 20:56:22 10° S 21:00:10 83° WSW 21:04:00 10° NNW
Spot 2 Rocket 3.6 20:56:25 10° SSE 21:01:27 86° WSW 21:06:31 10° NNW
Helios 1A 3.6 20:59:41 10° SE 21:03:39 40° ENE 21:07:35 10° N
SL-27 R/B 3.1 21:01:28 10° S 21:04:50 36° ESE 21:08:14 10° NE
Iridium 4 Rocket 4.0 21:02:22 10° N 21:07:33 71° W 21:13:08 10° S
H-2A R/B 4.3 21:04:16 10° SSW 21:07:41 35° W 21:11:07 10° NNW
Cosmos 1939 Rocket 3.6 21:04:36 10° SE 21:08:07 34° ENE 21:11:39 10° N
YAOGAN 6 4.2 21:06:34 10° ESE 21:09:03 19° ENE 21:11:35 10° NNE
Cosmos 1709 Rocket 4.3 21:03:21 10° NNW 21:09:34 70° W 21:15:40 10° S
USA 81 4.0 21:05:08 10° S 21:10:23 76° E 21:15:40 10° N
Cosmos 1666 3.6 21:09:57 10° NNE 21:13:19 31° E 21:16:15 12° SE
Cosmos 1680 Rocket 3.4 21:09:14 10° S 21:14:26 77° ESE 21:19:39 10° NNE
Okean 1-7 Rocket 4.5 21:11:46 10° SSE 21:15:39 31° E 21:19:35 10° NNE
Cosmos 1437 3.8 21:15:46 10° SSW 21:18:53 49° W 21:22:02 10° N
DNEPR-1 R/B 4.2 21:15:10 10° NNW 21:19:15 42° ENE 21:22:55 14° SE
CZ-3B Rocket 4.0 21:16:57 10° S 21:19:26 14° SSE 21:21:32 12° SE
Cosmos 1833 Rocket 4.4 21:19:02 11° ESE 21:19:55 11° E 21:21:41 10° ENE
Cosmos 1536 Rocket 4.1 21:18:31 10° SSW 21:22:47 60° W 21:27:04 10° N
Envisat 3.0 21:18:37 10° SSE 21:23:41 77° ENE 21:28:46 10° N
Cosmos 1656 Rocket 3.6 21:19:28 10° NNW 21:24:58 88° ENE 21:30:21 11° SSE
USA 186 2.9 21:24:01 10° S 21:27:04 41° W 21:30:04 10° NNW
Meteor 2-4 Rocket 3.8 21:22:00 10° S 21:27:31 63° E 21:33:14 10° NNE
COSMOS 2455 3.8 21:23:19 10° NW 21:29:00 45° WSW 21:34:41 10° S
Helios 1B rocket 2.5 21:25:20 10° N 21:29:28 83° WNW 21:33:36 10° SSW
PSLV R/B 4.4 21:27:28 10° NW 21:30:22 34° NNE 21:32:59 12° ENE
Cosmos 192 4.3 21:29:12 10° SSW 21:34:06 83° ESE 21:39:00 10° NNE
Cosmos 374 Rocket 4.2 21:33:29 10° NNW 21:37:15 89° WSW 21:40:04 20° SSE
Cosmos 405 3.6 21:35:35 10° N 21:38:55 38° ENE 21:40:27 24° SE
Cosmos 1025 Rocket 3.2 21:36:05 12° SSE 21:39:48 51° E 21:43:57 10° NNE
COSMOS 2487 4.2 21:43:45 17° E 21:43:45 17° E 21:45:36 10° NE
Spot 1 4.3 21:38:58 10° S 21:43:28 73° WSW 21:47:47 10° NNW
GENESIS II 4.1 21:40:42 10° NNW 21:44:38 75° ENE 21:46:42 26° SE
Cosmos 1943 Rocket 4.2 21:42:49 10° NW 21:47:06 23° W 21:51:21 10° SSW
CZ-3A R/B 0.8 21:41:51 10° SW 21:47:57 74° SE 21:50:05 10° NE
Cosmos 405 Rocket 4.4 21:46:10 10° SW 21:49:35 34° WNW 21:53:06 10° N
Aureole 1 Rocket 3.8 21:47:47 10° SW 21:50:58 37° WNW 21:53:49 10° N
Cosmos 2074 Rocket 4.1 21:45:03 10° N 21:51:19 78° W 21:57:34 10° S
Cosmos 2184 Rocket 4.2 21:48:21 10° N 21:54:40 76° W 22:00:55 10° S
Cosmos 2058 Rocket 4.5 21:52:37 10° NNE 21:56:04 22° ENE 21:56:51 21° E
Cosmos 1610 Rocket 4.4 21:49:54 10° N 21:56:11 77° E 22:00:51 18° SSE
Okean 2 3.3 21:54:01 22° SSE 21:56:28 61° E 22:00:30 10° NNE
Tiangong 2 3.3 21:54:36 10° WNW 21:57:18 25° NNW 22:00:00 10° NE
Cosmos 1441 Rocket 3.8 21:54:38 10° SSW 21:58:18 54° W 22:01:58 10° N
ARGOS 3.8 21:58:32 25° ESE 22:00:59 40° ENE 22:06:00 10° N
Cosmos 1371 Rocket 4.2 21:55:58 10° N 22:01:13 59° ENE 22:03:45 29° SE
Resurs 01 Rocket 4.3 22:01:24 10° SW 22:03:43 14° W 22:06:03 10° WNW
ERS-1 Rocket 2.9 22:01:27 25° SSE 22:04:24 78° ENE 22:09:25 10° N
Meteor 1-23 Rocket 4.3 21:59:22 10° SSW 22:04:54 79° W 22:10:32 10° N
NOAA 11 4.2 22:05:25 28° SSE 22:08:20 67° ENE 22:13:43 10° N
Terra 3.8 22:07:57 13° ENE 22:08:47 13° ENE 22:11:02 10° NE
SPOT 5 3.2 22:09:29 34° ESE 22:10:33 41° ENE 22:14:39 10° N
H-2A R/B 4.2 22:15:12 14° ENE 22:15:40 14° ENE 22:18:01 10° NNE
CENTAUR R/B 3.9 22:10:51 10° NW 22:18:30 46° WSW 22:24:51 16° S
Cosmos 962 Rocket 4.5 22:12:55 10° N 22:19:06 64° E 22:21:53 33° SSE
MetOp-B 4.1 22:18:17 34° SSE 22:20:43 79° ENE 22:26:06 10° N
ASTRO E2 4.4 22:22:20 10° WSW 22:24:51 21° SSW 22:24:51 21° SSW
Cosmos 2082 Rocket 2.3 22:23:35 33° SSE 22:25:52 55° ESE 22:31:23 10° NNE
Meteor 1-15 Rocket 4.2 22:21:26 10° NNW 22:27:01 77° W 22:29:49 30° S
MOS 1-B Rocket 3.9 22:26:27 32° SSE 22:29:17 87° WSW 22:35:38 10° NNW
Cosmos 2278 4.0 22:24:03 10° N 22:29:37 52° ENE 22:31:16 40° ESE
ISS -0.3 22:30:49 10° NW 22:32:08 12° NNW 22:33:29 10° N
Meteor 2-19 Rocket 4.4 22:27:11 10° N 22:33:21 87° E 22:36:04 36° S
SL-8 Rocket 4.2 22:30:39 10° N 22:36:46 53° E 22:38:28 42° SE
SL-24 DEB 4.1 22:35:50 56° SSE 22:36:46 81° E 22:41:25 10° N
Cosmos 2154 Rocket 4.3 22:32:30 10° NNW 22:38:47 64° W 22:42:32 25° SSW
H-2A R/B 2.0 22:40:27 52° ESE 22:41:12 58° ENE 22:46:08 10° N
Cosmos 2366 rocket 4.4 22:36:42 10° N 22:42:30 42° E 22:43:33 39° ESE
OAO 2 Rocket 3.1 22:38:35 10° W 22:43:31 73° SSW 22:44:05 65° SE
Cosmos 1624 Rocket 4.2 22:39:07 10° NNW 22:44:22 66° WSW 22:45:57 43° SSW
Cosmos 2228 2.9 22:42:08 10° N 22:46:19 69° ENE 22:46:19 69° ENE
Cosmos 921 Rocket 2.9 22:44:40 10° NNW 22:49:09 87° WSW 22:49:22 80° S
Cosmos 2369 3.6 22:43:44 10° NNW 22:49:29 78° ENE 22:50:41 56° SE
Meteor 1-4 Rocket 4.0 22:46:39 10° N 22:48:46 28° NE 22:48:46 28° NE
Cosmos 1697 Rocket 3.4 22:44:55 10° N 22:50:06 37° ENE 22:50:57 35° E
SL-08 RB Rocket 3.5 22:50:33 70° SSW 22:51:00 80° WSW 22:55:29 10° NNW
Cosmos 1656 3.6 22:52:01 10° NNW 22:57:26 63° ENE 22:58:04 58° E
Cosmos 1602 Rocket 4.0 23:01:03 50° NE 23:01:03 50° NE 23:04:27 10° NNE
Cosmos 1437 Rocket 4.3 22:56:51 10° NNW 23:00:11 28° W 23:00:44 27° WSW
Cosmos 1833 Rocket 2.7 23:00:37 35° SSW 23:03:03 75° WNW 23:08:42 10° NNE
Cosmos 2056 Rocket 4.2 22:58:43 10° NNW 23:03:35 44° WSW 23:04:39 39° SW
DMSP B5D2-2 3.9 23:00:43 10° NNE 23:06:02 85° ESE 23:06:34 72° S
Cosmos 1959 Rocket 4.4 22:59:40 10° N 23:06:03 77° E 23:07:14 60° SSE
Cosmos 1269 Rocket 4.3 23:10:47 54° ENE 23:10:47 54° ENE 23:15:15 10° NNE
Timation 2 Rocket 3.8 23:08:52 57° S 23:10:14 77° ESE 23:16:27 10° NNE
deb Chang Zheng 4 4.4 23:08:43 10° NNE 23:11:40 41° NE 23:11:40 41° NE
SL-08 R/B 4.3 23:10:43 10° N 23:16:51 82° E 23:17:35 70° SSE
Cosmos 1420 Rocket 4.1 23:16:31 10° N 23:21:26 62° NE 23:21:26 62° NE
Cosmos 1048 Rocket 4.0 23:22:41 68° NE 23:22:41 68° NE 23:27:13 10° NNE
Cosmos 2218 Rocket 3.9 23:16:58 10° N 23:23:06 77° W 23:24:06 63° SSW
Meteor 2-14 Rocket 4.3 23:19:33 10° N 23:25:38 74° E 23:25:54 73° ESE
CARTOSAT-1 4.2 23:27:22 53° NNW 23:27:22 53° NNW 23:30:42 10° NNW
Cosmos 1809 Rocket 4.4 23:21:39 10° N 23:27:43 76° W 23:28:27 67° SSW
Landsat 7 4.3 23:31:20 54° W 23:31:20 54° W 23:35:39 10° NNW
SL-24 R/B - RUBIN 2 4.4 23:32:21 75° SSE 23:32:46 78° ESE 23:39:23 10° NNE
Tiangong 2 4.2 23:32:08 10° NW 23:33:10 16° NNW 23:33:10 16° NNW
Cosmos 1452 Rocket 3.8 23:30:28 10° NNW 23:35:24 59° W 23:35:24 59° W
Cosmos 1980 Rocket 2.5 23:32:53 10° NNW 23:38:08 56° NE 23:38:08 56° NE
Meteor 1-21 4.2 23:39:12 82° WNW 23:39:12 82° WNW 23:44:54 10° N
Lacrosse 5 rocket 4.5 23:42:18 10° NNE 23:42:56 10° NNE 23:43:35 10° NE
Terra 2.5 23:46:50 49° WNW 23:46:50 49° WNW 23:50:41 10° NNW
Nadezhda 3 Rocket 3.9 23:46:51 82° E 23:46:51 82° E 23:53:13 10° N
Meteor 2-16 Rocket 4.3 23:40:57 10° N 23:47:07 84° W 23:47:10 84° WSW
Cosmos 2322 Rocket 3.7 23:44:14 10° N 23:48:50 24° ENE 23:48:59 24° ENE
H-2A R/B 3.3 23:52:19 39° WNW 23:52:19 39° WNW 23:55:36 10° NNW
